MDK01 NZCH-NZMJ

Flight info

Callsign MDK01
Flight time 1h 1m
Altitude 26000
Route GUPUT W291 KALDI
Aircraft B350/L-SBGRW/S

Departure

Time 2026-05-04 04:27
Airport Christchurch International Airport (NZCH)

Arrival

Time 2026-05-04 05:29
Airport Martins Bay Aerodrome (NZMJ)
Time Latitude Longitude Altitude Speed Heading
2026-05-04 04:19 -43.49900 172.52677 118 ft 0 kts 130°
2026-05-04 04:22 -43.49883 172.52686 116 ft 11 kts 304°
2026-05-04 04:22 -43.49847 172.52588 118 ft 10 kts 319°
2026-05-04 04:22 -43.49823 172.52551 122 ft 0 kts 310°
2026-05-04 04:23 -43.49811 172.52534 120 ft 8 kts 326°
2026-05-04 04:23 -43.49744 172.52577 123 ft 15 kts 40°
2026-05-04 04:23 -43.49644 172.52693 121 ft 22 kts 40°
2026-05-04 04:24 -43.49517 172.52839 123 ft 26 kts 39°
2026-05-04 04:24 -43.49368 172.53013 116 ft 29 kts 42°
2026-05-04 04:24 -43.49205 172.53203 112 ft 33 kts 39°
2026-05-04 04:24 -43.49027 172.53409 108 ft 35 kts 40°
2026-05-04 04:25 -43.48833 172.53618 105 ft 36 kts 39°
2026-05-04 04:25 -43.48638 172.53843 105 ft 37 kts 40°
2026-05-04 04:25 -43.48445 172.54078 104 ft 37 kts 40°
2026-05-04 04:25 -43.48237 172.54247 104 ft 29 kts 348°
2026-05-04 04:26 -43.48093 172.54181 108 ft 12 kts 308°
2026-05-04 04:26 -43.48104 172.54128 107 ft 0 kts 219°
2026-05-04 04:26 -43.48258 172.53949 105 ft 78 kts 220°
2026-05-04 04:26 -43.48881 172.53235 154 ft 144 kts 220°
2026-05-04 04:27 -43.49704 172.52323 723 ft 150 kts 217°
2026-05-04 04:27 -43.50528 172.51463 1493 ft 149 kts 218°
2026-05-04 04:27 -43.51362 172.50602 2233 ft 147 kts 218°
2026-05-04 04:27 -43.51911 172.49506 3045 ft 138 kts 247°
2026-05-04 04:28 -43.52327 172.48343 3821 ft 133 kts 244°
2026-05-04 04:28 -43.52760 172.47208 4516 ft 134 kts 244°
2026-05-04 04:28 -43.53218 172.46089 5214 ft 135 kts 240°
2026-05-04 04:28 -43.53736 172.45024 5870 ft 136 kts 237°
2026-05-04 04:29 -43.54284 172.43901 6366 ft 151 kts 238°
2026-05-04 04:29 -43.54878 172.42623 6860 ft 161 kts 238°
2026-05-04 04:29 -43.55493 172.41329 7446 ft 162 kts 238°
2026-05-04 04:29 -43.56115 172.40037 8047 ft 162 kts 238°
2026-05-04 04:30 -43.56733 172.38728 8652 ft 163 kts 239°
2026-05-04 04:30 -43.57348 172.37414 9249 ft 163 kts 239°
2026-05-04 04:30 -43.57973 172.36098 9868 ft 164 kts 238°
2026-05-04 04:30 -43.58590 172.34769 10465 ft 165 kts 242°
2026-05-04 04:31 -43.59137 172.33372 11008 ft 166 kts 244°
2026-05-04 04:31 -43.59687 172.31962 11552 ft 168 kts 243°
2026-05-04 04:31 -43.60261 172.30554 12106 ft 169 kts 243°
2026-05-04 04:31 -43.60836 172.29134 12663 ft 170 kts 243°
2026-05-04 04:32 -43.61412 172.27695 13216 ft 172 kts 243°
2026-05-04 04:32 -43.61995 172.26244 13772 ft 173 kts 243°
2026-05-04 04:32 -43.62576 172.24801 14314 ft 175 kts 243°
2026-05-04 04:32 -43.63169 172.23325 14801 ft 177 kts 243°
2026-05-04 04:33 -43.63769 172.21830 15298 ft 179 kts 243°
2026-05-04 04:33 -43.64372 172.20319 15790 ft 180 kts 243°
2026-05-04 04:33 -43.64982 172.18800 16295 ft 182 kts 243°
2026-05-04 04:33 -43.65599 172.17265 16788 ft 183 kts 243°
2026-05-04 04:34 -43.66218 172.15714 17286 ft 186 kts 243°
2026-05-04 04:34 -43.66846 172.14147 17794 ft 187 kts 243°
2026-05-04 04:34 -43.67264 172.13102 18129 ft 188 kts 244°
2026-05-04 04:34 -43.68114 172.10973 18795 ft 191 kts 243°
2026-05-04 04:35 -43.68757 172.09366 19243 ft 192 kts 243°
2026-05-04 04:35 -43.69180 172.08293 19506 ft 193 kts 244°
2026-05-04 04:35 -43.69835 172.06664 19988 ft 197 kts 243°
2026-05-04 04:35 -43.70525 172.04942 20232 ft 213 kts 243°
2026-05-04 04:36 -43.71262 172.03068 20342 ft 231 kts 243°
2026-05-04 04:36 -43.72067 172.01060 20397 ft 245 kts 243°
2026-05-04 04:36 -43.72912 171.98944 20424 ft 257 kts 243°
2026-05-04 04:36 -43.73785 171.96744 20436 ft 265 kts 243°
2026-05-04 04:37 -43.76525 171.89848 20447 ft 278 kts 243°
2026-05-04 04:37 -43.77460 171.87489 20446 ft 280 kts 243°
2026-05-04 04:38 -43.78398 171.85123 20448 ft 281 kts 243°
2026-05-04 04:38 -43.79340 171.82743 20445 ft 282 kts 243°
2026-05-04 04:38 -43.80269 171.80393 20445 ft 283 kts 243°
2026-05-04 04:38 -43.81217 171.77994 20444 ft 283 kts 243°
2026-05-04 04:39 -43.82151 171.75598 20446 ft 283 kts 245°
2026-05-04 04:39 -43.83061 171.73180 20443 ft 283 kts 242°
2026-05-04 04:39 -43.84072 171.70833 20448 ft 283 kts 242°
2026-05-04 04:39 -43.85030 171.68454 20444 ft 283 kts 243°
2026-05-04 04:40 -43.86010 171.66088 20445 ft 283 kts 242°
2026-05-04 04:40 -43.86988 171.63716 20447 ft 283 kts 242°
2026-05-04 04:40 -43.87960 171.61340 20448 ft 283 kts 242°
2026-05-04 04:40 -43.88936 171.58968 20446 ft 283 kts 242°
2026-05-04 04:41 -43.89897 171.56623 20447 ft 283 kts 242°
2026-05-04 04:41 -43.90870 171.54246 20443 ft 283 kts 242°
2026-05-04 04:41 -43.91843 171.51870 20443 ft 283 kts 242°
2026-05-04 04:41 -43.92812 171.49499 20443 ft 283 kts 242°
2026-05-04 04:42 -43.93783 171.47123 20446 ft 283 kts 242°
2026-05-04 04:42 -43.94753 171.44747 20446 ft 283 kts 242°
2026-05-04 04:42 -43.95724 171.42366 20443 ft 283 kts 242°
2026-05-04 04:42 -43.96692 171.39992 20446 ft 283 kts 242°
2026-05-04 04:43 -43.97647 171.37649 20444 ft 282 kts 242°
2026-05-04 04:43 -43.98613 171.35271 20443 ft 282 kts 242°
2026-05-04 04:43 -43.99579 171.32898 20441 ft 282 kts 242°
2026-05-04 04:43 -44.00544 171.30519 20442 ft 282 kts 242°
2026-05-04 04:44 -44.01509 171.28144 20441 ft 282 kts 242°
2026-05-04 04:44 -44.02474 171.25764 20441 ft 282 kts 242°
2026-05-04 04:44 -44.03437 171.23386 20443 ft 282 kts 242°
2026-05-04 04:44 -44.04398 171.21013 20444 ft 282 kts 242°
2026-05-04 04:45 -44.05360 171.18636 20444 ft 282 kts 242°
2026-05-04 04:45 -44.06324 171.16249 20445 ft 282 kts 242°
2026-05-04 04:45 -44.07283 171.13876 20442 ft 282 kts 242°
2026-05-04 04:47 -44.13026 170.99612 20439 ft 282 kts 243°
2026-05-04 04:47 -44.13949 170.97312 20437 ft 282 kts 243°
2026-05-04 04:47 -44.14905 170.94932 20434 ft 282 kts 243°
2026-05-04 04:47 -44.15860 170.92549 20433 ft 281 kts 243°
2026-05-04 04:48 -44.16813 170.90169 20435 ft 281 kts 243°
2026-05-04 04:49 -44.20621 170.80640 20430 ft 281 kts 243°
2026-05-04 04:49 -44.21571 170.78256 20431 ft 281 kts 243°
2026-05-04 04:49 -44.22520 170.75875 20430 ft 281 kts 243°
2026-05-04 04:49 -44.23469 170.73494 20431 ft 281 kts 243°
2026-05-04 04:50 -44.24406 170.71136 20425 ft 281 kts 243°
2026-05-04 04:50 -44.25354 170.68751 20429 ft 281 kts 243°
2026-05-04 04:50 -44.26300 170.66367 20425 ft 281 kts 243°
2026-05-04 04:50 -44.27245 170.63986 20433 ft 281 kts 243°
2026-05-04 04:51 -44.28190 170.61604 20422 ft 280 kts 243°
2026-05-04 04:51 -44.29134 170.59223 20436 ft 280 kts 243°
2026-05-04 04:51 -44.30075 170.56840 20435 ft 281 kts 243°
2026-05-04 04:51 -44.31021 170.54450 20424 ft 281 kts 243°
2026-05-04 04:52 -44.31963 170.52065 20424 ft 280 kts 243°
2026-05-04 04:52 -44.32909 170.49681 20426 ft 280 kts 243°
2026-05-04 04:52 -44.33834 170.47322 20431 ft 280 kts 243°
2026-05-04 04:52 -44.34773 170.44934 20426 ft 281 kts 243°
2026-05-04 04:53 -44.35715 170.42546 20427 ft 280 kts 243°
2026-05-04 04:53 -44.36652 170.40154 20429 ft 280 kts 243°
2026-05-04 04:53 -44.37589 170.37765 20429 ft 280 kts 243°
2026-05-04 04:53 -44.38527 170.35375 20427 ft 280 kts 243°
2026-05-04 04:54 -44.39464 170.32984 20426 ft 280 kts 243°
2026-05-04 04:54 -44.40398 170.30595 20429 ft 280 kts 243°
2026-05-04 04:54 -44.41337 170.28195 20429 ft 280 kts 243°
2026-05-04 04:54 -44.42273 170.25799 20428 ft 280 kts 243°
2026-05-04 04:55 -44.43207 170.23403 20431 ft 281 kts 243°
2026-05-04 04:55 -44.44143 170.21009 20425 ft 280 kts 243°
2026-05-04 04:55 -44.45065 170.18642 20422 ft 280 kts 244°
2026-05-04 04:55 -44.45996 170.16248 20424 ft 280 kts 244°
2026-05-04 04:56 -44.46925 170.13861 20425 ft 280 kts 244°
2026-05-04 04:56 -44.47855 170.11470 20436 ft 280 kts 244°
2026-05-04 04:56 -44.48787 170.09068 20431 ft 281 kts 244°
2026-05-04 04:56 -44.49720 170.06664 20421 ft 281 kts 244°
2026-05-04 04:57 -44.50651 170.04264 20417 ft 280 kts 244°
2026-05-04 04:57 -44.51581 170.01863 20418 ft 280 kts 244°
2026-05-04 04:57 -44.52509 169.99465 20424 ft 279 kts 244°
2026-05-04 04:57 -44.53437 169.97068 20427 ft 280 kts 244°
2026-05-04 04:58 -44.54365 169.94661 20427 ft 280 kts 244°
2026-05-04 04:58 -44.55282 169.92290 20424 ft 281 kts 244°
2026-05-04 04:58 -44.56211 169.89881 20416 ft 280 kts 244°
2026-05-04 04:58 -44.57136 169.87474 20425 ft 280 kts 244°
2026-05-04 04:59 -44.58067 169.85064 20417 ft 280 kts 244°
2026-05-04 04:59 -44.58992 169.82660 20419 ft 280 kts 244°
2026-05-04 04:59 -44.59913 169.80258 20422 ft 279 kts 244°
2026-05-04 04:59 -44.60838 169.77853 20421 ft 279 kts 244°
2026-05-04 05:00 -44.61746 169.75484 20418 ft 279 kts 244°
2026-05-04 05:00 -44.62667 169.73083 20433 ft 279 kts 244°
2026-05-04 05:00 -44.64508 169.68273 20422 ft 279 kts 244°
2026-05-04 05:01 -44.65426 169.65870 20416 ft 279 kts 244°
2026-05-04 05:01 -44.66342 169.63473 20429 ft 279 kts 244°
2026-05-04 05:01 -44.67258 169.61070 20428 ft 279 kts 244°
2026-05-04 05:01 -44.68176 169.58666 20421 ft 279 kts 244°
2026-05-04 05:02 -44.69092 169.56261 20422 ft 279 kts 244°
2026-05-04 05:02 -44.69923 169.53811 20423 ft 277 kts 253°
2026-05-04 05:02 -44.70402 169.51191 20424 ft 276 kts 259°
2026-05-04 05:02 -44.70777 169.48536 20419 ft 276 kts 261°
2026-05-04 05:03 -44.71119 169.45879 20422 ft 276 kts 261°
2026-05-04 05:03 -44.71444 169.43227 20420 ft 275 kts 262°
2026-05-04 05:04 -44.71992 169.35234 20430 ft 275 kts 266°
2026-05-04 05:04 -44.72139 169.32552 20426 ft 275 kts 267°
2026-05-04 05:04 -44.72267 169.29866 20419 ft 275 kts 266°
2026-05-04 05:06 -44.73221 169.11100 20425 ft 275 kts 267°
2026-05-04 05:06 -44.73355 169.08416 20429 ft 275 kts 267°
2026-05-04 05:06 -44.73487 169.05738 20431 ft 274 kts 267°
2026-05-04 05:07 -44.73618 169.03057 20435 ft 275 kts 267°
2026-05-04 05:07 -44.73750 169.00368 20434 ft 275 kts 267°
2026-05-04 05:07 -44.73881 168.97680 20423 ft 275 kts 267°
2026-05-04 05:09 -44.74904 168.76206 20443 ft 276 kts 267°
2026-05-04 05:09 -44.75027 168.73543 20443 ft 276 kts 267°
2026-05-04 05:10 -44.75152 168.70840 20420 ft 276 kts 267°
2026-05-04 05:10 -44.75276 168.68159 20434 ft 274 kts 267°
2026-05-04 05:10 -44.75399 168.65473 20451 ft 275 kts 267°
2026-05-04 05:10 -44.75522 168.62784 20422 ft 274 kts 267°
2026-05-04 05:11 -44.75642 168.60109 20439 ft 275 kts 267°
2026-05-04 05:11 -44.75765 168.57424 20457 ft 275 kts 267°
2026-05-04 05:11 -44.75885 168.54739 20476 ft 276 kts 268°
2026-05-04 05:11 -44.76004 168.52039 20466 ft 277 kts 268°
2026-05-04 05:12 -44.76122 168.49380 20448 ft 276 kts 268°
2026-05-04 05:12 -44.76240 168.46686 20466 ft 276 kts 268°
2026-05-04 05:12 -44.76364 168.43988 20473 ft 277 kts 268°
2026-05-04 05:12 -44.76475 168.41357 20474 ft 277 kts 268°
2026-05-04 05:13 -44.76597 168.38578 20468 ft 277 kts 267°
2026-05-04 05:13 -44.76714 168.35879 20470 ft 275 kts 268°
2026-05-04 05:13 -44.76829 168.33190 20490 ft 276 kts 268°
2026-05-04 05:13 -44.76940 168.30526 20493 ft 276 kts 268°
2026-05-04 05:14 -44.77059 168.27824 20501 ft 277 kts 268°
2026-05-04 05:14 -44.77173 168.25111 20487 ft 278 kts 268°
2026-05-04 05:14 -44.77286 168.22388 20379 ft 282 kts 268°
2026-05-04 05:14 -44.77399 168.19599 20121 ft 288 kts 268°
2026-05-04 05:15 -44.77281 168.16784 19900 ft 290 kts 282°
2026-05-04 05:15 -44.76613 168.14149 19666 ft 283 kts 298°
2026-05-04 05:15 -44.75467 168.11945 19410 ft 278 kts 313°
2026-05-04 05:15 -44.73942 168.10309 19185 ft 276 kts 329°
2026-05-04 05:16 -44.72157 168.09308 18960 ft 276 kts 340°
2026-05-04 05:16 -44.70306 168.08714 18710 ft 276 kts 346°
2026-05-04 05:16 -44.68425 168.08233 18416 ft 273 kts 346°
2026-05-04 05:16 -44.66566 168.07684 18171 ft 270 kts 343°
2026-05-04 05:17 -44.64748 168.07059 17917 ft 268 kts 342°
2026-05-04 05:17 -44.62948 168.06386 17657 ft 266 kts 339°
2026-05-04 05:17 -44.61229 168.05454 17394 ft 264 kts 334°
2026-05-04 05:17 -44.59533 168.04543 16989 ft 266 kts 338°
2026-05-04 05:18 -44.57792 168.03661 16493 ft 265 kts 336°
2026-05-04 05:18 -44.56078 168.02733 15989 ft 264 kts 337°
2026-05-04 05:18 -44.54360 168.01842 15500 ft 262 kts 337°
2026-05-04 05:18 -44.52657 168.00952 15022 ft 260 kts 336°
2026-05-04 05:19 -44.50969 168.00057 14562 ft 259 kts 337°
2026-05-04 05:19 -44.49287 167.99181 14056 ft 257 kts 337°
2026-05-04 05:19 -44.47616 167.98306 13528 ft 255 kts 337°
2026-05-04 05:19 -44.45959 167.97436 13014 ft 253 kts 337°
2026-05-04 05:20 -44.44315 167.96578 12507 ft 251 kts 337°
2026-05-04 05:20 -44.42682 167.95723 12012 ft 250 kts 337°
2026-05-04 05:20 -44.41062 167.94868 11518 ft 248 kts 337°
2026-05-04 05:20 -44.39472 167.94024 11027 ft 242 kts 337°
2026-05-04 05:21 -44.37911 167.93187 10557 ft 238 kts 336°
2026-05-04 05:21 -44.36410 167.92311 10049 ft 234 kts 328°
2026-05-04 05:21 -44.35133 167.90934 9525 ft 231 kts 319°
2026-05-04 05:21 -44.33939 167.89461 9007 ft 226 kts 317°
2026-05-04 05:22 -44.32786 167.87984 8511 ft 224 kts 319°
2026-05-04 05:22 -44.31384 167.87148 8023 ft 226 kts 356°
2026-05-04 05:22 -44.30365 167.87471 7702 ft 232 kts 23°
2026-05-04 05:22 -44.29258 167.89126 7218 ft 243 kts 63°
2026-05-04 05:23 -44.29320 167.92255 6551 ft 251 kts 113°
2026-05-04 05:23 -44.30209 167.94342 6041 ft 249 kts 128°
2026-05-04 05:23 -44.30950 167.95558 5707 ft 247 kts 131°
2026-05-04 05:23 -44.32561 167.97791 5029 ft 242 kts 149°
2026-05-04 05:24 -44.34140 167.98269 4521 ft 237 kts 189°
2026-05-04 05:24 -44.35597 167.97299 4008 ft 233 kts 218°
2026-05-04 05:24 -44.36455 167.96349 3660 ft 232 kts 220°
2026-05-04 05:24 -44.38072 167.94404 2972 ft 230 kts 222°
2026-05-04 05:25 -44.38868 167.93382 2625 ft 229 kts 227°
2026-05-04 05:25 -44.39530 167.91423 2114 ft 226 kts 267°
2026-05-04 05:25 -44.39106 167.89419 1670 ft 219 kts 310°
2026-05-04 05:25 -44.37855 167.88421 1470 ft 205 kts 354°
2026-05-04 05:26 -44.36562 167.88953 1377 ft 194 kts 38°
2026-05-04 05:26 -44.35688 167.90309 1328 ft 184 kts 64°
2026-05-04 05:26 -44.35694 167.92002 1299 ft 172 kts 104°
2026-05-04 05:26 -44.36061 167.93542 1298 ft 163 kts 108°
2026-05-04 05:27 -44.36573 167.94922 1296 ft 158 kts 120°
2026-05-04 05:28 -44.36479 168.01772 95 ft 95 kts 51°
2026-05-04 05:29 -44.36275 168.02076 109 ft 8 kts 41°
2026-05-04 05:29 -44.36201 168.02162 109 ft 14 kts
2026-05-04 05:29 -44.36199 168.02135 109 ft 1 kts 195°
2026-05-04 05:29 -44.36260 168.02118 111 ft 22 kts 188°
2026-05-04 05:31 -44.36440 168.01849 90 ft 0 kts 207°